When you browse on this site, cookies collect data to enhance your experience and personalize the content and advertising you see.
Visit our Privacy Policy to learn more. By continuing to use the site, you agree to this use of cookies and data.
  • în România
  • Lista ţărilor
  • Pe 7 zile
  • Temperatura apei
  • Meteo pe hartă
  • Widget-uri
  • user-avatar
    Intrare

    Meteo pe oră la Budapesta

    Astăzi, 21 Octombrie, Luni

    Timp Temperatura Precipitaţii Vânt Presiune Umiditate
    00:00 +17°C° 0 mm 3 m/s 755 mmHg 60%
    01:00 +17°C° 0 mm 3 m/s 755 mmHg 62%
    02:00 +17°C° 0 mm 4 m/s 755 mmHg 65%
    03:00 +17°C° 0 mm 4 m/s 755 mmHg 68%
    04:00 +17°C° 0 mm 4 m/s 755 mmHg 71%
    05:00 +17°C° 0 mm 4 m/s 755 mmHg 71%
    06:00 +17°C° 0 mm 3 m/s 755 mmHg 71%
    07:00 +17°C° 0 mm 3 m/s 755 mmHg 71%
    08:00 +19°C° 0 mm 4 m/s 756 mmHg 65%
    09:00 +21°C° 0 mm 4 m/s 756 mmHg 58%
    10:00 +23°C° 0 mm 5 m/s 756 mmHg 51%
    11:00 +25°C° 0 mm 5 m/s 756 mmHg 48%
    12:00 +26°C° 0 mm 5 m/s 756 mmHg 44%
    13:00 +28°C° 0 mm 5 m/s 756 mmHg 41%
    14:00 +27°C° 0 mm 4 m/s 756 mmHg 43%
    15:00 +27°C° 0 mm 3 m/s 756 mmHg 44%
    16:00 +26°C° 0 mm 2 m/s 755 mmHg 46%
    17:00 +25°C° 0 mm 2 m/s 756 mmHg 50%
    18:00 +23°C° 0 mm 2 m/s 756 mmHg 53%
    19:00 +21°C° 0 mm 2 m/s 756 mmHg 57%
    20:00 +20°C° 0 mm 2 m/s 756 mmHg 59%
    21:00 +20°C° 0 mm 2 m/s 756 mmHg 62%
    22:00 +19°C° 0 mm 2 m/s 756 mmHg 64%
    23:00 +19°C° 0 mm 2 m/s 756 mmHg 66%

    Mâine, 22 Octombrie, Marţi

    Timp Temperatura Precipitaţii Vânt Presiune Umiditate
    00:00 +19°C° 0 mm 1 m/s 756 mmHg 67%
    01:00 +19°C° 0 mm 1 m/s 757 mmHg 69%
    02:00 +18°C° 0 mm 1 m/s 757 mmHg 70%
    03:00 +18°C° 0 mm 1 m/s 757 mmHg 71%
    04:00 +16°C° 0 mm 1 m/s 757 mmHg 72%
    05:00 +16°C° 0 mm 1 m/s 757 mmHg 72%
    06:00 +16°C° 0 mm 1 m/s 757 mmHg 72%
    07:00 +16°C° 0 mm 1 m/s 758 mmHg 73%
    08:00 +19°C° 0 mm 1 m/s 758 mmHg 67%
    09:00 +21°C° 0 mm 1 m/s 758 mmHg 61%
    10:00 +23°C° 0 mm 1 m/s 758 mmHg 55%
    11:00 +24°C° 0 mm 1 m/s 758 mmHg 51%
    12:00 +25°C° 0 mm 2 m/s 758 mmHg 47%
    13:00 +26°C° 0 mm 2 m/s 758 mmHg 43%
    14:00 +26°C° 0 mm 1 m/s 758 mmHg 45%
    15:00 +25°C° 0 mm 1 m/s 757 mmHg 47%
    16:00 +23°C° 0 mm 0 m/s 757 mmHg 49%
    17:00 +22°C° 0 mm 0 m/s 757 mmHg 52%
    18:00 +21°C° 0 mm 0 m/s 757 mmHg 55%
    19:00 +19°C° 0 mm 0 m/s 758 mmHg 59%
    20:00 +21°C° 0 mm 1 m/s 757 mmHg 60%
    21:00 +21°C° 0 mm 1 m/s 757 mmHg 61%
    22:00 +20°C° 0 mm 1 m/s 757 mmHg 63%
    23:00 +20°C° 0 mm 1 m/s 757 mmHg 63%

    Poimâine, 23 Octombrie, Miercuri

    Timp Temperatura Precipitaţii Vânt Presiune Umiditate
    00:00 +19°C° 0 mm 1 m/s 757 mmHg 64%
    01:00 +19°C° 0 mm 1 m/s 757 mmHg 64%
    02:00 +18°C° 0 mm 1 m/s 757 mmHg 65%
    03:00 +18°C° 0 mm 1 m/s 757 mmHg 66%
    04:00 +17°C° 0 mm 2 m/s 757 mmHg 67%
    05:00 +17°C° 0 mm 2 m/s 757 mmHg 67%
    06:00 +16°C° 0 mm 2 m/s 757 mmHg 68%
    07:00 +16°C° 0 mm 2 m/s 757 mmHg 69%
    08:00 +18°C° 0 mm 2 m/s 757 mmHg 62%
    09:00 +20°C° 0 mm 3 m/s 757 mmHg 55%
    10:00 +22°C° 0 mm 3 m/s 757 mmHg 48%
    11:00 +24°C° 0 mm 3 m/s 756 mmHg 44%
    12:00 +26°C° 0 mm 3 m/s 756 mmHg 39%
    13:00 +27°C° 0 mm 3 m/s 756 mmHg 35%
    14:00 +26°C° 0 mm 3 m/s 755 mmHg 37%
    15:00 +25°C° 0 mm 3 m/s 755 mmHg 39%
    16:00 +25°C° 0 mm 2 m/s 754 mmHg 41%
    17:00 +22°C° 0 mm 3 m/s 754 mmHg 45%
    18:00 +21°C° 0 mm 3 m/s 754 mmHg 49%
    19:00 +20°C° 0 mm 3 m/s 754 mmHg 53%
    20:00 +19°C° 0 mm 3 m/s 754 mmHg 55%
    21:00 +18°C° 0 mm 3 m/s 754 mmHg 58%
    22:00 +18°C° 0 mm 2 m/s 754 mmHg 60%
    23:00 +17°C° 0 mm 2 m/s 754 mmHg 61%

    24 Octombrie, Joi

    Timp Temperatura Precipitaţii Vânt Presiune Umiditate
    00:00 +17°C° 0 mm 2 m/s 754 mmHg 61%
    01:00 +16°C° 0 mm 2 m/s 754 mmHg 62%
    02:00 +16°C° 0 mm 2 m/s 754 mmHg 61%
    03:00 +15°C° 0 mm 2 m/s 754 mmHg 60%
    04:00 +15°C° 0 mm 2 m/s 754 mmHg 60%
    05:00 +15°C° 0 mm 2 m/s 754 mmHg 61%
    06:00 +15°C° 0 mm 2 m/s 754 mmHg 62%
    07:00 +14°C° 0 mm 2 m/s 753 mmHg 63%
    08:00 +16°C° 0 mm 3 m/s 754 mmHg 56%
    09:00 +18°C° 0 mm 3 m/s 754 mmHg 49%
    10:00 +20°C° 0 mm 3 m/s 754 mmHg 42%
    11:00 +22°C° 0 mm 3 m/s 753 mmHg 39%
    12:00 +24°C° 0 mm 3 m/s 753 mmHg 35%
    13:00 +26°C° 0 mm 3 m/s 753 mmHg 32%
    14:00 +25°C° 0 mm 3 m/s 753 mmHg 34%
    15:00 +24°C° 0 mm 2 m/s 752 mmHg 36%
    16:00 +24°C° 0 mm 2 m/s 752 mmHg 37%
    17:00 +21°C° 0 mm 2 m/s 752 mmHg 40%
    18:00 +20°C° 0 mm 2 m/s 752 mmHg 43%
    19:00 +19°C° 0 mm 2 m/s 753 mmHg 46%
    20:00 +18°C° 0 mm 2 m/s 753 mmHg 47%
    21:00 +18°C° 0 mm 2 m/s 753 mmHg 48%
    22:00 +18°C° 0 mm 1 m/s 753 mmHg 49%
    23:00 +18°C° 0 mm 1 m/s 753 mmHg 50%

    25 Octombrie, Vineri

    Timp Temperatura Precipitaţii Vânt Presiune Umiditate
    00:00 +16°C° 0 mm 1 m/s 754 mmHg 51%
    01:00 +16°C° 0 mm 1 m/s 754 mmHg 52%
    02:00 +15°C° 0 mm 1 m/s 754 mmHg 54%
    03:00 +15°C° 0 mm 1 m/s 754 mmHg 55%
    04:00 +15°C° 0 mm 1 m/s 754 mmHg 56%
    05:00 +15°C° 0 mm 1 m/s 754 mmHg 57%
    06:00 +14°C° 0 mm 1 m/s 754 mmHg 58%
    07:00 +14°C° 0 mm 1 m/s 755 mmHg 58%
    08:00 +16°C° 0 mm 1 m/s 755 mmHg 52%
    09:00 +17°C° 0 mm 0 m/s 756 mmHg 46%
    10:00 +19°C° 0 mm 0 m/s 756 mmHg 41%
    11:00 +20°C° 0 mm 0 m/s 756 mmHg 38%
    12:00 +22°C° 0 mm 0 m/s 756 mmHg 36%
    13:00 +25°C° 0 mm 1 m/s 756 mmHg 33%
    14:00 +24°C° 0 mm 1 m/s 756 mmHg 35%
    15:00 +23°C° 0 mm 1 m/s 756 mmHg 38%
    16:00 +23°C° 0 mm 1 m/s 756 mmHg 40%
    17:00 +21°C° 0 mm 1 m/s 756 mmHg 43%
    18:00 +20°C° 0 mm 1 m/s 756 mmHg 47%
    19:00 +19°C° 0 mm 1 m/s 756 mmHg 50%
    20:00 +18°C° 0 mm 1 m/s 757 mmHg 53%
    21:00 +18°C° 0 mm 1 m/s 757 mmHg 56%
    22:00 +16°C° 0 mm 1 m/s 757 mmHg 59%
    23:00 +16°C° 0 mm 1 m/s 757 mmHg 60%

    26 Octombrie, Sâmbătă

    Timp Temperatura Precipitaţii Vânt Presiune Umiditate
    00:00 +16°C° 0 mm 1 m/s 757 mmHg 62%
    01:00 +15°C° 0 mm 1 m/s 757 mmHg 64%
    02:00 +15°C° 0 mm 1 m/s 757 mmHg 65%
    03:00 +14°C° 0 mm 1 m/s 757 mmHg 67%
    04:00 +14°C° 0 mm 1 m/s 757 mmHg 68%
    05:00 +14°C° 0 mm 1 m/s 757 mmHg 69%
    06:00 +14°C° 0 mm 1 m/s 757 mmHg 69%
    07:00 +14°C° 0 mm 1 m/s 757 mmHg 70%
    08:00 +15°C° 0 mm 1 m/s 758 mmHg 63%
    09:00 +18°C° 0 mm 1 m/s 758 mmHg 56%
    10:00 +20°C° 0 mm 1 m/s 758 mmHg 49%
    11:00 +21°C° 0 mm 1 m/s 758 mmHg 45%
    12:00 +23°C° 0 mm 1 m/s 757 mmHg 41%
    13:00 +22°C° 0 mm 0 m/s 757 mmHg 37%
    14:00 +21°C° 0 mm 0 m/s 756 mmHg 39%
    15:00 +20°C° 0 mm 0 m/s 756 mmHg 41%
    16:00 +20°C° 0 mm 0 m/s 756 mmHg 43%
    17:00 +19°C° 0 mm 0 m/s 756 mmHg 46%
    18:00 +17°C° 0 mm 0 m/s 756 mmHg 48%
    19:00 +16°C° 0 mm 0 m/s 756 mmHg 51%
    20:00 +16°C° 0 mm 0 m/s 756 mmHg 52%
    21:00 +16°C° 0 mm 0 m/s 756 mmHg 54%
    22:00 +16°C° 0 mm 1 m/s 757 mmHg 55%
    23:00 +16°C° 0 mm 1 m/s 756 mmHg 57%

    27 Octombrie, Duminică

    Timp Temperatura Precipitaţii Vânt Presiune Umiditate
    00:00 +15°C° 0 mm 1 m/s 756 mmHg 59%
    01:00 +15°C° 0 mm 1 m/s 756 mmHg 61%
    02:00 +14°C° 0 mm 1 m/s 756 mmHg 62%
    03:00 +14°C° 0 mm 1 m/s 756 mmHg 64%
    04:00 +13°C° 0 mm 0 m/s 756 mmHg 66%
    05:00 +14°C° 0 mm 1 m/s 756 mmHg 67%
    06:00 +14°C° 0 mm 1 m/s 756 mmHg 67%
    07:00 +13°C° 0 mm 1 m/s 757 mmHg 68%
    08:00 +15°C° 0 mm 2 m/s 757 mmHg 63%
    09:00 +17°C° 0 mm 2 m/s 757 mmHg 57%
    10:00 +19°C° 0 mm 2 m/s 757 mmHg 52%
    11:00 +20°C° 0 mm 3 m/s 757 mmHg 50%
    12:00 +21°C° 0 mm 3 m/s 757 mmHg 48%
    13:00 +22°C° 0 mm 3 m/s 757 mmHg 46%
    14:00 +21°C° 0 mm 3 m/s 756 mmHg 48%
    15:00 +21°C° 0 mm 2 m/s 756 mmHg 51%
    16:00 +20°C° 0 mm 2 m/s 756 mmHg 53%
    17:00 +19°C° 0 mm 2 m/s 756 mmHg 58%
    18:00 +18°C° 0 mm 2 m/s 756 mmHg 63%
    19:00 +16°C° 0 mm 2 m/s 756 mmHg 67%
    20:00 +16°C° 0 mm 2 m/s 757 mmHg 69%
    21:00 +15°C° 0 mm 2 m/s 757 mmHg 71%
    22:00 +15°C° 0 mm 2 m/s 757 mmHg 73%
    23:00 +15°C° 0 mm 2 m/s 757 mmHg 73%
    Arată mai mult